AZU9270 SBRF-SBSL

Flight info

Callsign AZU9270
Flight time N/A
Altitude 38000
Route IROSI DCT UGTUN UM791 ISUGI DCT VULBU DCT PANUP
Aircraft A20N/M-SDE2E3FGHIRWXY/LB1

Departure

Time 2026-05-01 14:08
Airport Recife/Guararapes - Gilberto Freyre International Airport (SBRF)

Arrival

Time N/A
Airport Marechal Cunha Machado International Airport (SBSL)
Time Latitude Longitude Altitude Speed Heading
2026-05-01 13:58 -8.13139 -34.91909 42 ft 0 kts 71°
2026-05-01 13:59 -8.13142 -34.91920 42 ft 2 kts 71°
2026-05-01 13:59 -8.13147 -34.91934 42 ft 2 kts 71°
2026-05-01 13:59 -8.13152 -34.91948 42 ft 0 kts 71°
2026-05-01 13:59 -8.13155 -34.91958 42 ft 2 kts 60°
2026-05-01 14:00 -8.13165 -34.91970 42 ft 2 kts 39°
2026-05-01 14:00 -8.13177 -34.91978 42 ft 2 kts 20°
2026-05-01 14:00 -8.13192 -34.91981 42 ft 2 kts
2026-05-01 14:00 -8.13205 -34.91979 42 ft 0 kts 344°
2026-05-01 14:01 -8.13211 -34.91977 42 ft 1 kts 340°
2026-05-01 14:01 -8.13212 -34.91977 42 ft 0 kts 341°
2026-05-01 14:02 -8.13211 -34.91977 42 ft 0 kts 341°
2026-05-01 14:03 -8.13199 -34.91981 42 ft 3 kts 341°
2026-05-01 14:03 -8.13164 -34.91993 42 ft 6 kts 342°
2026-05-01 14:03 -8.13109 -34.92011 42 ft 10 kts 342°
2026-05-01 14:03 -8.13032 -34.92036 42 ft 12 kts 341°
2026-05-01 14:04 -8.12939 -34.92069 42 ft 15 kts 340°
2026-05-01 14:04 -8.12830 -34.92105 42 ft 17 kts 345°
2026-05-01 14:04 -8.12716 -34.92138 42 ft 17 kts 341°
2026-05-01 14:04 -8.12641 -34.92164 42 ft 16 kts 340°
2026-05-01 14:05 -8.12493 -34.92217 42 ft 17 kts 340°
2026-05-01 14:05 -8.12379 -34.92252 42 ft 17 kts 342°
2026-05-01 14:05 -8.12266 -34.92289 42 ft 17 kts 341°
2026-05-01 14:05 -8.12153 -34.92327 42 ft 17 kts 341°
2026-05-01 14:06 -8.12039 -34.92365 42 ft 17 kts 341°
2026-05-01 14:06 -8.11925 -34.92403 42 ft 17 kts 341°
2026-05-01 14:06 -8.11812 -34.92440 42 ft 17 kts 342°
2026-05-01 14:06 -8.11699 -34.92479 42 ft 15 kts 341°
2026-05-01 14:07 -8.11602 -34.92521 42 ft 15 kts 321°
2026-05-01 14:07 -8.11521 -34.92590 42 ft 15 kts 319°
2026-05-01 14:07 -8.11448 -34.92663 42 ft 13 kts 279°
2026-05-01 14:08 -8.11822 -34.92588 43 ft 79 kts 162°
2026-05-01 14:08 -8.12560 -34.92345 43 ft 140 kts 161°
2026-05-01 14:08 -8.13629 -34.92001 258 ft 168 kts 164°
2026-05-01 14:08 -8.14754 -34.91656 750 ft 173 kts 164°
2026-05-01 14:09 -8.15960 -34.91284 1133 ft 189 kts 162°
2026-05-01 14:09 -8.17277 -34.90860 1439 ft 212 kts 161°
2026-05-01 14:09 -8.18726 -34.90386 2084 ft 221 kts 160°
2026-05-01 14:09 -8.20143 -34.89818 2765 ft 226 kts 144°
2026-05-01 14:10 -8.21155 -34.88564 3265 ft 241 kts 111°
2026-05-01 14:10 -8.21337 -34.86877 3899 ft 255 kts 81°
2026-05-01 14:10 -8.20564 -34.85252 4711 ft 263 kts 54°
2026-05-01 14:10 -8.19396 -34.83846 5494 ft 267 kts 54°
2026-05-01 14:11 -8.18235 -34.82378 6280 ft 270 kts 54°
2026-05-01 14:11 -8.15721 -34.79552 7794 ft 279 kts 31°
2026-05-01 14:11 -8.13847 -34.79076 8584 ft 287 kts 359°
2026-05-01 14:12 -8.11924 -34.79648 9368 ft 294 kts 332°
2026-05-01 14:12 -8.10369 -34.81010 10050 ft 302 kts 315°
2026-05-01 14:12 -8.08945 -34.82599 10514 ft 313 kts 314°
2026-05-01 14:12 -8.07426 -34.84257 10794 ft 330 kts 315°
2026-05-01 14:13 -8.05811 -34.85983 11147 ft 345 kts 315°
2026-05-01 14:13 -8.04702 -34.87156 11510 ft 348 kts 315°
2026-05-01 14:13 -8.02455 -34.89511 12340 ft 352 kts 316°
2026-05-01 14:13 -8.00749 -34.91289 12956 ft 355 kts 316°
2026-05-01 14:14 -7.99024 -34.93082 13527 ft 358 kts 316°
2026-05-01 14:14 -7.97279 -34.94895 14037 ft 363 kts 316°
2026-05-01 14:14 -7.95511 -34.96727 14544 ft 367 kts 316°
2026-05-01 14:14 -7.93725 -34.98579 15038 ft 371 kts 316°
2026-05-01 14:15 -7.91918 -35.00451 15532 ft 375 kts 316°
2026-05-01 14:15 -7.90090 -35.02341 16009 ft 379 kts 316°
2026-05-01 14:15 -7.88238 -35.04252 16469 ft 383 kts 316°
2026-05-01 14:15 -7.86364 -35.06182 16928 ft 387 kts 317°
2026-05-01 14:16 -7.84473 -35.08133 17388 ft 391 kts 316°
2026-05-01 14:16 -7.82564 -35.10102 17862 ft 394 kts 317°
2026-05-01 14:16 -7.80648 -35.12082 18368 ft 396 kts 316°
2026-05-01 14:16 -7.78722 -35.14073 18829 ft 398 kts 316°
2026-05-01 14:17 -7.76783 -35.16083 19273 ft 401 kts 316°
2026-05-01 14:17 -7.74829 -35.18106 19712 ft 404 kts 316°
2026-05-01 14:17 -7.72864 -35.20138 20174 ft 406 kts 316°
2026-05-01 14:17 -7.70891 -35.22181 20612 ft 408 kts 316°
2026-05-01 14:18 -7.68905 -35.24237 21033 ft 411 kts 316°
2026-05-01 14:18 -7.66907 -35.26308 21421 ft 414 kts 316°
2026-05-01 14:18 -7.64888 -35.28395 21790 ft 417 kts 316°
2026-05-01 14:18 -7.63536 -35.29794 22070 ft 419 kts 316°
2026-05-01 14:19 -7.60827 -35.32601 22647 ft 421 kts 316°
2026-05-01 14:19 -7.58779 -35.34722 23030 ft 423 kts 315°
2026-05-01 14:19 -7.56727 -35.36848 23500 ft 423 kts 316°
2026-05-01 14:19 -7.54672 -35.38978 23923 ft 425 kts 316°
2026-05-01 14:20 -7.52611 -35.41116 24345 ft 426 kts 316°
2026-05-01 14:20 -7.48460 -35.45412 25114 ft 430 kts 316°
2026-05-01 14:20 -7.46370 -35.47573 25488 ft 432 kts 316°
2026-05-01 14:21 -7.44276 -35.49748 25855 ft 434 kts 315°
2026-05-01 14:21 -7.42278 -35.52028 26247 ft 436 kts 311°
2026-05-01 14:21 -7.40435 -35.54452 26634 ft 437 kts 307°
2026-05-01 14:22 -7.37098 -35.59607 27305 ft 442 kts 304°
2026-05-01 14:22 -7.35453 -35.62222 27630 ft 444 kts 304°
2026-05-01 14:22 -7.33799 -35.64848 27941 ft 445 kts 304°
2026-05-01 14:22 -7.32140 -35.67485 28247 ft 447 kts 304°
2026-05-01 14:23 -7.30477 -35.70128 28590 ft 448 kts 305°
2026-05-01 14:23 -7.28808 -35.72774 28918 ft 449 kts 304°
2026-05-01 14:23 -7.27130 -35.75429 29200 ft 451 kts 305°
2026-05-01 14:23 -7.25441 -35.78094 29482 ft 453 kts 305°
2026-05-01 14:24 -7.23745 -35.80767 29771 ft 454 kts 305°
2026-05-01 14:24 -7.22043 -35.83447 30076 ft 455 kts 305°
2026-05-01 14:24 -7.20337 -35.86134 30375 ft 457 kts 305°
2026-05-01 14:24 -7.18626 -35.88827 30657 ft 458 kts 304°
2026-05-01 14:25 -7.16911 -35.91529 30934 ft 459 kts 305°
2026-05-01 14:25 -7.15189 -35.94237 31220 ft 460 kts 305°
2026-05-01 14:25 -7.13470 -35.96944 31593 ft 459 kts 305°
2026-05-01 14:25 -7.11761 -35.99635 32021 ft 456 kts 305°
2026-05-01 14:26 -7.10062 -36.02311 32416 ft 453 kts 305°
2026-05-01 14:26 -7.06678 -36.07626 33173 ft 450 kts 304°
2026-05-01 14:26 -7.04993 -36.10274 33535 ft 449 kts 304°
2026-05-01 14:27 -7.03314 -36.12914 33921 ft 447 kts 304°
2026-05-01 14:27 -7.01642 -36.15540 34316 ft 445 kts 304°
2026-05-01 14:27 -6.99982 -36.18155 34696 ft 443 kts 303°
2026-05-01 14:28 -6.96678 -36.23351 35361 ft 440 kts 303°
2026-05-01 14:28 -6.95035 -36.25936 35656 ft 439 kts 303°
2026-05-01 14:28 -6.93396 -36.28516 35921 ft 438 kts 302°
2026-05-01 14:28 -6.91759 -36.31086 36197 ft 437 kts 302°
2026-05-01 14:29 -6.90111 -36.33641 36443 ft 436 kts 303°
2026-05-01 14:29 -6.88340 -36.36113 36650 ft 436 kts 307°
2026-05-01 14:30 -6.82582 -36.43183 37220 ft 435 kts 308°
2026-05-01 14:30 -6.80658 -36.45531 37406 ft 435 kts 308°
2026-05-01 14:30 -6.78742 -36.47879 37582 ft 434 kts 308°
2026-05-01 14:31 -6.74916 -36.52573 37912 ft 434 kts 308°
2026-05-01 14:31 -6.71093 -36.57274 38001 ft 435 kts 307°
2026-05-01 14:32 -6.67254 -36.61978 38000 ft 436 kts 307°
2026-05-01 14:32 -6.63405 -36.66689 37995 ft 436 kts 307°
2026-05-01 14:33 -6.59573 -36.71414 37987 ft 436 kts 307°
2026-05-01 14:33 -6.55736 -36.76127 37977 ft 436 kts 307°
2026-05-01 14:34 -6.51886 -36.80822 37967 ft 435 kts 308°
2026-05-01 14:34 -6.48040 -36.85515 37962 ft 435 kts 308°
2026-05-01 14:35 -6.44199 -36.90211 37959 ft 435 kts 307°
2026-05-01 14:35 -6.40355 -36.94910 37953 ft 436 kts 308°
2026-05-01 14:36 -6.36496 -36.99607 37947 ft 436 kts 308°
2026-05-01 14:36 -6.32637 -37.04312 37954 ft 437 kts 307°
2026-05-01 14:37 -6.28780 -37.09021 37957 ft 437 kts 307°
2026-05-01 14:37 -6.24927 -37.13730 37956 ft 436 kts 307°
2026-05-01 14:38 -6.21077 -37.18430 37952 ft 436 kts 307°
2026-05-01 14:38 -6.17230 -37.23131 37945 ft 436 kts 307°
2026-05-01 14:39 -6.13382 -37.27832 37945 ft 436 kts 307°
2026-05-01 14:39 -6.09531 -37.32539 37949 ft 436 kts 307°
2026-05-01 14:40 -6.05678 -37.37249 37951 ft 437 kts 307°
2026-05-01 14:40 -6.01816 -37.41958 37953 ft 437 kts 307°
2026-05-01 14:41 -5.97944 -37.46648 37959 ft 436 kts 307°
2026-05-01 14:41 -5.94080 -37.51337 37955 ft 436 kts 307°
2026-05-01 14:42 -5.90220 -37.56030 37959 ft 436 kts 307°
2026-05-01 14:42 -5.86340 -37.60722 37960 ft 437 kts 307°
2026-05-01 14:43 -5.82463 -37.65421 37958 ft 437 kts 308°
2026-05-01 14:43 -5.78562 -37.70101 37956 ft 437 kts 308°
2026-05-01 14:44 -5.74660 -37.74778 37954 ft 437 kts 308°
2026-05-01 14:44 -5.68813 -37.81791 37950 ft 437 kts 308°
2026-05-01 14:45 -5.62973 -37.88804 37954 ft 437 kts 308°
2026-05-01 14:46 -5.59078 -37.93474 37955 ft 437 kts 308°
2026-05-01 14:46 -5.53235 -38.00488 37954 ft 437 kts 308°
2026-05-01 14:47 -5.49334 -38.05167 37954 ft 437 kts 308°
2026-05-01 14:48 -5.43478 -38.12190 37949 ft 438 kts 309°
2026-05-01 14:48 -5.37625 -38.19204 37951 ft 438 kts 309°
2026-05-01 14:49 -5.29817 -38.28567 37944 ft 438 kts 309°
2026-05-01 14:50 -5.21995 -38.37951 37937 ft 439 kts 309°
2026-05-01 14:51 -5.16124 -38.44993 37938 ft 439 kts 308°
2026-05-01 14:52 -5.10966 -38.52531 37938 ft 438 kts 298°
2026-05-01 14:53 -5.07198 -38.60846 37945 ft 439 kts 289°
2026-05-01 14:53 -5.05117 -38.66592 37943 ft 440 kts 289°
2026-05-01 14:54 -5.03050 -38.72313 37950 ft 440 kts 290°
2026-05-01 14:54 -5.00960 -38.78055 37953 ft 439 kts 290°
2026-05-01 14:55 -4.98867 -38.83785 37959 ft 439 kts 290°
2026-05-01 14:55 -4.96771 -38.89514 37963 ft 439 kts 290°
2026-05-01 14:56 -4.94673 -38.95249 37967 ft 440 kts 290°
2026-05-01 14:56 -4.92569 -39.00998 37970 ft 440 kts 290°
2026-05-01 14:57 -4.90459 -39.06748 37975 ft 440 kts 290°
2026-05-01 14:57 -4.87274 -39.15346 37977 ft 439 kts 290°
2026-05-01 14:58 -4.85156 -39.21079 37985 ft 440 kts 290°
2026-05-01 14:58 -4.83047 -39.26817 37991 ft 440 kts 290°
2026-05-01 14:59 -4.80940 -39.32556 37991 ft 440 kts 290°
2026-05-01 14:59 -4.78832 -39.38298 37985 ft 440 kts 290°
2026-05-01 15:00 -4.75673 -39.46907 37985 ft 439 kts 290°
2026-05-01 15:01 -4.73563 -39.52644 37984 ft 440 kts 290°
2026-05-01 15:01 -4.71454 -39.58378 37992 ft 439 kts 290°
2026-05-01 15:02 -4.69354 -39.64106 37998 ft 438 kts 290°
2026-05-01 15:02 -4.67262 -39.69821 38007 ft 437 kts 290°
2026-05-01 15:03 -4.65167 -39.75534 38014 ft 438 kts 290°
2026-05-01 15:03 -4.63065 -39.81251 38019 ft 439 kts 290°
2026-05-01 15:04 -4.60965 -39.86970 38019 ft 439 kts 290°
2026-05-01 15:04 -4.58861 -39.92690 38010 ft 439 kts 290°
2026-05-01 15:05 -4.56755 -39.98411 38000 ft 439 kts 290°
2026-05-01 15:05 -4.54650 -40.04134 37994 ft 439 kts 290°
2026-05-01 15:06 -4.52542 -40.09850 37992 ft 438 kts 290°
2026-05-01 15:06 -4.50447 -40.15543 37987 ft 436 kts 290°
2026-05-01 15:07 -4.48356 -40.21217 37981 ft 435 kts 290°
2026-05-01 15:07 -4.46265 -40.26894 37972 ft 435 kts 290°
2026-05-01 15:08 -4.44176 -40.32568 37976 ft 435 kts 290°
2026-05-01 15:08 -4.42080 -40.38254 37979 ft 436 kts 290°
2026-05-01 15:09 -4.39980 -40.43940 37975 ft 436 kts 290°
2026-05-01 15:09 -4.37885 -40.49614 37965 ft 435 kts 290°
2026-05-01 15:10 -4.35793 -40.55283 37965 ft 435 kts 290°
2026-05-01 15:10 -4.32660 -40.63773 37985 ft 434 kts 290°
2026-05-01 15:11 -4.29541 -40.72249 38016 ft 433 kts 290°
2026-05-01 15:12 -4.27460 -40.77901 38036 ft 434 kts 290°
2026-05-01 15:12 -4.24327 -40.86388 38039 ft 434 kts 290°
2026-05-01 15:14 -4.19094 -41.00543 38028 ft 435 kts 290°
2026-05-01 15:14 -4.15953 -41.09033 38019 ft 434 kts 290°
2026-05-01 15:15 -4.11763 -41.20356 37990 ft 435 kts 290°
2026-05-01 15:16 -4.07564 -41.31697 37965 ft 436 kts 290°
2026-05-01 15:18 -4.02294 -41.45923 37946 ft 437 kts 290°
2026-05-01 15:19 -3.98054 -41.57370 37936 ft 441 kts 290°
2026-05-01 15:19 -3.94859 -41.65990 37927 ft 441 kts 290°
2026-05-01 15:20 -3.91675 -41.74612 37925 ft 441 kts 290°
2026-05-01 15:21 -3.89544 -41.80360 37920 ft 441 kts 290°
2026-05-01 15:21 -3.87390 -41.86089 37912 ft 440 kts 290°
2026-05-01 15:22 -3.84181 -41.94691 37906 ft 441 kts 290°
2026-05-01 15:22 -3.82046 -42.00440 37905 ft 441 kts 290°
2026-05-01 15:23 -3.79914 -42.06184 37901 ft 441 kts 290°
2026-05-01 15:23 -3.77782 -42.11931 37900 ft 442 kts 290°
2026-05-01 15:24 -3.75652 -42.17675 37902 ft 441 kts 290°
2026-05-01 15:24 -3.73531 -42.23410 37903 ft 440 kts 290°
2026-05-01 15:25 -3.71411 -42.29135 37904 ft 440 kts 290°
2026-05-01 15:25 -3.69139 -42.34792 37900 ft 438 kts 295°
2026-05-01 15:26 -3.66282 -42.40131 37895 ft 436 kts 302°
2026-05-01 15:26 -3.62964 -42.45192 37678 ft 436 kts 304°
2026-05-01 15:27 -3.61285 -42.47702 37384 ft 433 kts 303°
2026-05-01 15:27 -3.59619 -42.50199 37091 ft 431 kts 303°
2026-05-01 15:27 -3.57966 -42.52680 36797 ft 428 kts 303°
2026-05-01 15:28 -3.54753 -42.57668 36140 ft 428 kts 297°
2026-05-01 15:28 -3.53466 -42.60348 35599 ft 430 kts 295°
2026-05-01 15:28 -3.52253 -42.63079 34887 ft 432 kts 294°
2026-05-01 15:29 -3.49828 -42.68619 32873 ft 447 kts 294°
2026-05-01 15:29 -3.48556 -42.71509 31535 ft 461 kts 294°
2026-05-01 15:29 -3.45916 -42.77453 29427 ft 474 kts 294°
2026-05-01 15:30 -3.43253 -42.83424 28210 ft 466 kts 294°
2026-05-01 15:31 -3.38033 -42.95131 25205 ft 469 kts 295°
2026-05-01 15:31 -3.35433 -43.00973 24353 ft 453 kts 295°
2026-05-01 15:32 -3.32947 -43.06660 23501 ft 440 kts 295°
2026-05-01 15:32 -3.30591 -43.12105 23049 ft 419 kts 294°
2026-05-01 15:33 -3.27024 -43.20002 22183 ft 416 kts 296°
2026-05-01 15:34 -3.23472 -43.27884 20683 ft 416 kts 296°